This demonstration page uses our WeatherBlox Daily Observations layout. Learn more.

Left ArrowRight Arrow

34.16533, -84.80231

Hourly Observations for March 24, 2020

Temp ( °F °C ) Dew Point ( °F °C ) Humidity (%) Winds ( mph kmh ) Pressure ( in mb ) Visibility ( mi km ) Precip ( " mm )
12:13 am 00:13 Cloudy with Mist and Fog 55 12.8 53 11.7 93 93 Calm 30.10 1019 2 3 0.00 0.00
12:53 am 00:53 Mostly Cloudy with Mist and Fog 55 12.8 54 12.2 96 96 Calm 30.08 1019 1 1 0.00 0.00
1:31 am 01:31 Mostly Cloudy with Mist and Fog 55 12.8 54 12.2 96 96 Calm 30.09 1019 1 2 0.00 0.00
1:53 am 01:53 Cloudy with Mist and Fog 55 12.8 54 12.2 96 96 Calm 30.06 1018 2 2 0.00 0.00
2:02 am 02:02 Cloudy with Mist and Fog 56 13.3 54 12.2 93 93 Calm 30.09 1019 3 4 0.00 0.00
2:20 am 02:20 Cloudy with Mist and Fog 56 13.3 54 12.2 93 93 NE 3 6 30.08 1019 3 5 0.00 0.00
2:53 am 02:53 Cloudy with Mist and Fog 55 12.8 54 12.2 96 96 Calm 30.06 1018 3 5 0.00 0.00
2:58 am 02:58 Cloudy with Mist and Fog 55 12.8 54 12.2 96 96 Calm 30.08 1019 2 3 0.00 0.00
3:13 am 03:13 Mostly Cloudy with Mist and Fog 55 12.8 54 12.2 96 96 Calm 30.09 1019 1 1 0.00 0.00
3:53 am 03:53 Mostly Cloudy with Mist and Fog 55 12.8 54 12.2 96 96 Calm 30.06 1018 1 1 0.00 0.00
4:02 am 04:02 Cloudy with Mist and Fog 55 12.8 54 12.2 96 96 SSE 3 6 30.07 1018 2 2 0.00 0.00
4:07 am 04:07 Cloudy with Mist and Fog 55 12.8 54 12.2 96 96 SSE 3 6 30.08 1019 3 5 0.00 0.00
4:31 am 04:31 Cloudy 56 13.3 54 12.2 93 93 Calm 30.07 1018 10 16 0.00 0.00
4:53 am 04:53 Cloudy 56 13.3 54 12.2 93 93 Calm 30.04 1017 10 16 0.00 0.00
5:07 am 05:07 Cloudy 56 13.3 54 12.2 93 93 Calm 30.07 1018 10 16 0.00 0.00
5:53 am 05:53 Cloudy with Mist and Fog 56 13.3 54 12.2 93 93 ENE 3 6 30.04 1017 4 6 0.00 0.00
6:44 am 06:44 Cloudy 57 13.9 55 12.8 93 93 Calm 30.06 1018 9 14 0.00 0.00
6:53 am 06:53 Cloudy 57 13.9 54 12.2 90 90 Calm 30.04 1017 9 14 0.00 0.00
7:53 am 07:53 Cloudy 57 13.9 55 12.8 93 93 NNE 5 7 30.03 1017 10 16 0.00 0.00
8:21 am 08:21 Cloudy 57 13.9 55 12.8 93 93 ENE 5 7 30.06 1018 8 13 0.00 0.00
8:27 am 08:27 Cloudy 57 13.9 55 12.8 93 93 NE 5 7 30.06 1018 8 13 0.00 0.00
8:46 am 08:46 Cloudy with Mist and Fog 57 13.9 55 12.8 93 93 E 6 9 30.04 1017 6 10 0.00 0.00
8:53 am 08:53 Cloudy 57 13.9 55 12.8 93 93 ESE 5 7 30.02 1017 7 11 0.00 0.00
9:53 am 09:53 Cloudy with Light Rain 58 14.4 56 13.3 93 93 E 7 11 29.99 1016 7 11 0.00 0.00
10:11 am 10:11 Cloudy 59 15 56 13.3 90 90 ESE 6 9 30.01 1016 10 16 0.00 0.00
10:23 am 10:23 Cloudy 59 15 57 13.9 93 93 ESE 7 11 30.02 1016 10 16 0.00 0.00
10:38 am 10:38 Cloudy with Nearby Thunderstorms 59 15 57 13.9 93 93 VRB 3 6 30.02 1016 3 4 0.04 1.02
10:45 am 10:45 Cloudy with Thunderstorms 59 15 57 13.9 93 93 E 5 7 30.02 1016 3 5 0.05 1.27
10:53 am 10:53 Cloudy with Thunderstorms 60 15.6 57 13.9 90 90 ESE 5 7 29.99 1016 3 4 0.09 2.29
10:55 am 10:55 Cloudy with Heavy Rain 60 15.6 58 14.4 93 93 ESE 6 9 30.00 1016 2 3 0.02 0.51
10:59 am 10:59 Cloudy with Rain 60 15.6 58 14.4 93 93 Calm 30.00 1016 2 3 0.02 0.51
11:04 am 11:04 Cloudy with Light Rain 60 15.6 58 14.4 93 93 E 5 7 29.99 1016 3 5 0.02 0.51
11:15 am 11:15 Cloudy 61 16.1 58 14.4 90 90 SSE 3 6 29.99 1016 10 16 0.02 0.51
11:42 am 11:42 Cloudy with Nearby Thunderstorms 61 16.1 59 15 93 93 VRB 3 6 30.00 1016 5 8 0.03 0.76
11:53 am 11:53 Cloudy 62 16.7 60 15.6 93 93 Calm 29.99 1016 8 13 0.03 0.76
12:41 pm 12:41 Cloudy with Light Rain 63 17.2 61 16.1 93 93 N 9 15 30.02 1017 8 13 0.00 0.00
12:53 pm 12:53 Cloudy 62 16.7 60 15.6 93 93 NNE 9 15 30.01 1016 10 16 0.00 0.00
1:15 pm 13:15 Cloudy with Light Rain 61 16.1 58 14.4 90 90 VRB 5 7 30.01 1016 8 13 0.01 0.25
1:53 pm 13:53 Cloudy 64 17.8 60 15.6 87 87 ENE 5 7 29.98 1015 10 16 0.02 0.51
2:27 pm 14:27 Cloudy 65 18.3 61 16.1 87 87 ENE 7 11 29.98 1015 10 16 0.00 0.00
2:46 pm 14:46 Cloudy 66 18.9 61 16.1 84 84 ENE 7 11 29.96 1014 10 16 0.00 0.00
2:53 pm 14:53 Mostly Cloudy 66 18.9 62 16.7 87 87 E 8 13 29.94 1014 10 16 0.00 0.00
3:07 pm 15:07 Mostly Cloudy 66 18.9 61 16.1 84 84 ESE 10 17 29.95 1014 10 16 0.00 0.00
3:35 pm 15:35 Mostly Cloudy 67 19.4 61 16.1 81 81 E 9 15 29.93 1014 10 16 0.00 0.00
3:44 pm 15:44 Partly Cloudy 66 18.9 60 15.6 81 81 E 10 17 29.93 1013 10 16 0.00 0.00
3:53 pm 15:53 Mostly Sunny 66 18.9 60 15.6 81 81 E 6 9 29.91 1013 10 16 0.00 0.00
4:53 pm 16:53 Mostly Cloudy 66 18.9 59 15 78 78 ESE 12 19 29.87 1012 10 16 0.00 0.00
5:53 pm 17:53 Partly Cloudy 68 20 60 15.6 76 76 SE 8 13 29.85 1011 10 16 0.00 0.00
6:53 pm 18:53 Partly Cloudy 66 18.9 59 15 78 78 ESE 10 17 29.83 1010 10 16 0.00 0.00
7:53 pm 19:53 Cloudy 64 17.8 59 15 84 84 ESE 7 11 29.81 1010 10 16 0.00 0.00
8:53 pm 20:53 Cloudy 63 17.2 58 14.4 84 84 SE 9 15 29.78 1009 10 16 0.00 0.00
9:53 pm 21:53 Mostly Cloudy 63 17.2 58 14.4 84 84 ESE 8 13 29.75 1008 10 16 0.00 0.00
10:53 pm 22:53 Cloudy 63 17.2 58 14.4 84 84 SE 10 17 29.71 1006 10 16 0.00 0.00
11:06 pm 23:06 Cloudy with Thunderstorms 63 17.2 59 15 87 87 SE 10 17 29.71 1006 10 16 0.00 0.00
11:22 pm 23:22 Cloudy with Strong Thunderstorms 63 17.2 59 15 87 87 NW 10 17 29.78 1008 2 3 0.20 5.08
11:33 pm 23:33 Mostly Clear with Strong Thunderstorms 63 17.2 61 16.1 93 93 N 9 15 29.80 1009 N/A 0.71 18.03
11:43 pm 23:43 Mostly Clear with Thunderstorms 62 16.7 60 15.6 93 93 undefined N/A 29.81 1010 3 4 0.75 19.05
11:50 pm 23:50 Mostly Clear with Rain 63 17 61 16 94 94 VRB 3 6 29.83 1010 4 6 0.79 20.07
11:51 pm 23:51 Mostly Clear with Rain 62 16.7 60 15.6 93 93 Calm 29.81 1010 3 5 0.81 20.57
11:58 pm 23:58 Cloudy with Nearby Thunderstorms 62 16.7 59 15 90 90 Calm 29.81 1010 2 3 0.05 1.27

Powered by AerisWeather